Location: Newark
(7.0858°N, 171.3717°E)
Time: 20:57:05
(UTC+00:00)

Tiros 1 - Pass Details

Date: 28 November 2020
Orbit: 630 x 663 km, 48.4° (Epoch: 18 January)

Event Time Altitude Azimuth Distance (km) Brightness Sun altitude
Rises 01:29:28 0° 219° (SW) 2,972 11.0 57.2°
Reaches altitude 10° 01:31:48 10° 219° (SW) 2,064 10.5 56.9°
Maximum altitude 01:36:35 89° 299° (WNW) 662 8.4 56.2°
Drops below altitude 10° 01:41:23 10° 39° (NE) 2,069 9.5 55.6°
Sets 01:43:43 0° 39° (NE) 2,980 10.2 55.3°
